• Join FlightAware (Why Join?)
  • Login
  • US Flag 
Rudolph Flight #1: Arrived! 
11:16AM EST


 

Airport Tracker/Info


-or-


 

Live Flight TrackerFlight Track Log ✈ SWA595 ✈ 12-Oct-2013 ✈ KBWI - KMHT

Flight Track Log - Related Links

Times and Time Zones

All times are in EDT time to prevent confusion due to time zone crossing. See the SWA595 flight status page for this flight to view local times or setup timezone preferences in your user account.

Time Position Orientation Groundspeed Altitude Reporting Facility
EDT Latitude Longitude Course Direction KTS MPH feet Rate Location/Type
08:09AM 39.1728 -76.7189 251° West 185 213 1,700  Level Washington Center
08:10AM 39.1533 -76.7908 251° West 254 292 4,600 2,340 Climbing Washington Center
08:11AM 39.1206 -76.7394 129° Southeast 90 104 6,500 1,140 Climbing Washington Center
08:12AM 39.1275 -76.6431 85° East 155 178 7,000 1,440 Climbing Washington Center
08:13AM 39.1325 -76.5469 86° East 191 220 9,400 2,520 Climbing Washington Center
08:14AM 39.1375 -76.4425 86° East 240 276 12,000 2,880 Climbing Washington Center
08:15AM 39.1447 -76.3222 86° East 289 333 15,200 3,000 Climbing Washington Center
08:16AM 39.1536 -76.1911 85° East 336 387 18,200 2,760 Climbing Washington Center
08:17AM 39.1708 -76.0708 79° East 371 427 20,700 2,580 Climbing Washington Center
08:18AM 39.1858 -75.9289 82° East 383 441 23,400 2,700 Climbing Washington Center
08:19AM 39.2425 -75.8139 58° Northeast 382 440 26,100 2,280 Climbing Washington Center
08:20AM 39.3239 -75.7122 44° Northeast 382 440 28,000 1,680 Climbing Washington Center
08:21AM 39.4072 -75.6050 45° Northeast 396 456 29,600 1,800 Climbing Washington Center
08:22AM 39.4906 -75.4947 46° Northeast 408 470 31,600 2,100 Climbing Washington Center
08:23AM 39.5739 -75.3869 45° Northeast 421 484 33,800 1,680 Climbing Washington Center
08:25AM 39.7533 -75.1372 47° Northeast 409 471 37,000 1,020 Climbing New York Center
08:26AM 39.8325 -75.0231 48° Northeast 421 484 37,000  Level New York Center
08:27AM 39.9117 -74.9142 47° Northeast 426 490 37,000  Level New York Center
08:28AM 40.0203 -74.8447 26° Northeast 426 490 37,000  Level New York Center
08:29AM 40.1319 -74.8078 14° North 403 464 37,000  Level New York Center
08:30AM 40.2419 -74.7628 17° North 408 470 37,000  Level New York Center
08:31AM 40.3517 -74.7228 16° North 408 470 37,000  Level New York Center
08:32AM 40.4636 -74.6800 16° North 408 470 37,000  Level New York Center
08:33AM 40.5753 -74.6428 14° North 408 470 37,000  Level New York Center
08:34AM 40.6850 -74.5997 17° North 408 470 37,000  Level New York Center
08:35AM 40.7969 -74.5539 17° North 408 470 37,000  Level New York Center
08:36AM 40.9106 -74.5136 15° North 408 470 37,000  Level New York Center
08:37AM 41.0181 -74.4728 16° North 408 470 37,000  Level New York Center
08:38AM 41.1278 -74.4292 17° North 403 464 37,000  Level New York Center
08:40AM 41.3192 -74.3583 16° North 406 467 37,000  Level Boston Center
08:41AM 41.4261 -74.3200 15° North 400 460 37,000  Level Boston Center
08:42AM 41.5100 -74.2864 17° North 394 453 37,000  Level Boston Center
08:43AM 41.6294 -74.2425 15° North 399 459 37,000  Level Boston Center
08:44AM 41.7364 -74.2039 15° North 399 459 37,000 -780 Level Boston Center
08:45AM 41.8392 -74.1650 16° North 399 459 35,500 -1,740 Descending Boston Center
08:46AM 41.9439 -74.1231 17° North 394 453 33,600 -1,380 Descending Boston Center
08:47AM 42.0508 -74.0842 15° North 394 453 32,800 -900 Descending Boston Center
08:48AM 42.1619 -74.0394 17° North 401 461 31,900 -960 Descending Boston Center
08:49AM 42.2731 -73.9944 17° North 406 467 30,900 -1,020 Descending Boston Center
08:50AM 42.3761 -73.9325 24° Northeast 406 467 29,900 -1,020 Descending Boston Center
08:51AM 42.4197 -73.7789 69° East 385 443 28,900 -1,020 Descending Boston Center
08:52AM 42.4589 -73.6247 71° East 396 456 27,900 -1,020 Descending Boston Center
08:53AM 42.4978 -73.4708 71° East 415 478 26,900 -1,080 Descending Boston Center
08:54AM 42.5367 -73.3081 72° East 426 490 25,800 -1,080 Descending Boston Center
08:55AM 42.5753 -73.1675 70° East 427 491 24,800 -1,020 Descending Boston Center
08:56AM 42.6156 -73.0269 69° East 409 471 23,800 -1,080 Descending Boston Center
08:57AM 42.6497 -72.8833 72° East 402 463 22,700 -1,560 Descending Boston Center
08:58AM 42.6833 -72.7367 73° East 402 463 20,700 -2,040 Descending Boston Center
08:59AM 42.7211 -72.5983 70° East 389 448 18,700 -1,980 Descending Boston Center
09:00AM 42.7525 -72.4711 71° East 366 421 16,900 -2,040 Descending Boston Center
09:01AM 42.7839 -72.3439 71° East 355 409 14,700 -2,160 Descending Boston Center
09:02AM 42.8003 -72.2136 80° East 348 400 12,600 -2,100 Descending Boston Center
09:03AM 42.8103 -72.0864 84° East 338 389 10,500 -1,440 Descending Boston Center
09:04AM 42.8078 -71.9675 92° East 320 368 9,700 -1,260 Descending Boston Center
09:05AM 42.8011 -71.8572 95° East 301 346 8,000 -1,440 Descending Boston Center
09:06AM 42.7922 -71.7525 97° East 285 328 6,800 -1,020 Descending Boston Center
09:07AM 42.7853 -71.6564 96° East 264 304 6,100 -420 Descending Boston Center
09:08AM 42.7575 -71.5719 114° Southeast 248 285 6,000 -660 Descending Boston Center
09:09AM 42.7300 -71.5044 119° Southeast 216 249 4,800 -1,380 Descending Boston Center
09:10AM 42.7356 -71.4367 84° East 190 219 3,300 -900 Descending Boston Center
09:11AM 42.7581 -71.3656 67° East 190 219 3,000 -480 Descending Boston Center
09:12AM 42.8017 -71.3706 355° North 160 184 2,400 -600 Descending Boston Center
09:13AM 42.8478 -71.3867 346° North 160 184 1,900 -660 Descending Boston Center
09:14AM 42.8833 -71.4058 338° Northwest 143 165 1,200 -780 Descending Boston Center
09:15AM 42.9169 -71.4253 337° Northwest 136 157 400 -420 Descending Boston Center
09:16AM 42.9464 -71.4444 335° Northwest 136 157 400  Level Boston Center